#timestamp,LO_Frequency,Hit,StdDev 
1508158815.3,286046992.7,N
1508158835.1,286046992.8,N
1508158836.0,286046992.8,N
1508158855.8,286046992.9,N
1508158875.7,286046994.8,N
1508158895.5,286046991.7,N
1508158915.3,286046993.3,N
1508158935.2,286046991.7,N
1508158955.9,286046992.6,N
1508158975.7,286046992.9,N
1508158995.6,286046995.0,N
1508159015.4,286046998.7,N
1508159035.2,286046995.9,N
1508159055.0,286046996.7,N
1508159056.0,286046996.7,N
1508159075.8,286046998.8,N
1508159095.6,286046998.6,N
1508159115.4,286047000.4,N
1508159135.3,286047002.0,N
1508159155.1,286047000.5,N
1508159175.8,286047001.4,N
1508159195.7,286047001.1,N
1508159215.5,286046996.4,N
1508159235.3,286046996.0,N
1508159255.2,286047000.6,N
1508159275.9,286047000.5,N
1508159295.7,286046998.1,N
1508159315.6,286046995.8,N
1508159335.4,286046996.6,N
1508159355.2,286047000.7,N
1508159375.0,286047002.4,N
1508159376.0,286047002.4,N
1508159395.8,286047000.6,N
1508159415.6,286046998.7,N
1508159435.4,286047000.2,N
1508159455.3,286046997.2,N
1508159475.1,286046995.2,N
1508159495.8,286046998.5,N
1508159515.7,286046993.8,N
1508159535.5,286047000.3,N
1508159555.3,286046999.8,N
1508159575.2,286047000.6,N
1508159595.9,286047000.1,N
1508159615.7,286047001.0,N
1508159635.6,286047001.0,N
1508159655.4,286046993.5,N
1508159675.2,286046988.9,Y
1508159695.1,286046995.6,P
1508159696.0,286046995.6,N
1508159715.8,286046998.4,N
1508159735.6,286046999.5,N
1508159755.5,286046999.1,N
1508159775.3,286047001.2,N
1508159795.1,286047004.2,N
1508159815.9,286047000.8,N
1508159835.7,286046997.7,N
1508159855.5,286046995.4,N
1508159875.4,286046992.6,N
1508159895.2,286046991.4,N
1508159915.0,286046986.6,Y
1508159915.9,286046986.6,P
1508159935.8,286046989.0,N
1508159955.6,286046987.8,N
1508159975.4,286046991.2,N
1508159995.3,286046990.9,N
1508160015.1,286046991.5,N
1508160016.0,286046991.5,N
1508160035.8,286046989.2,Y
1508160055.7,286046996.5,P
1508160075.5,286047000.7,N
1508160095.3,286047002.7,N
1508160115.2,286047004.8,N
1508160135.9,286047001.9,N
1508160155.7,286047004.1,N
1508160175.6,286047000.3,N
1508160195.4,286047004.3,N
1508160215.2,286047004.9,N
1508160235.0,286047009.2,N
1508160236.0,286047009.2,N
1508160255.8,286047012.1,N
1508160275.6,286047010.6,N
1508160295.4,286047007.4,N
1508160315.3,286047006.4,N
1508160335.1,286047005.3,N
1508160355.8,286047005.2,N
1508160375.7,286047003.6,N
1508160395.5,286047003.6,N
1508160415.3,286047000.1,N
1508160435.2,286046998.9,N
1508160455.9,286047001.6,N
1508160475.7,286047000.1,N
1508160495.6,286046999.4,N
1508160515.4,286046993.4,N
1508160535.2,286046995.2,N
1508160555.1,286046994.2,N
1508160556.0,286046994.2,N
1508160575.8,286046991.5,N
1508160595.6,286046990.7,N
1508160615.5,286046996.4,N
1508160635.3,286046993.8,N
1508160655.1,286046993.9,N
1508160675.9,286046997.2,N
1508160695.7,286046997.8,N
1508160715.5,286047002.2,N
1508160735.3,286047005.5,N
1508160755.4,286047007.9,N
1508160775.2,286047009.1,N
1508160795.1,286047008.9,N
1508160796.0,286047008.9,N
1508160815.8,286047007.3,N
1508160835.6,286047004.9,N
1508160855.5,286047002.1,N
1508160875.3,286046999.3,N
1508160895.1,286046999.7,N
1508160915.9,286047005.7,N
1508160935.7,286047010.7,N
1508160955.5,286047005.6,N
1508160975.4,286046998.3,N
1508160995.2,286046998.6,N
1508161015.0,286047002.1,N
1508161015.9,286047002.1,N
1508161035.7,286047001.6,N
1508161055.6,286047000.7,N
1508161075.4,286047000.4,N
1508161095.2,286046998.5,N
1508161115.1,286047000.2,N
1508161116.0,286047000.2,N
1508161135.8,286047002.0,N
1508161155.6,286047002.7,N
1508161175.5,286047002.1,N
1508161195.3,286047000.5,N
1508161215.1,286046996.8,N
1508161235.9,286046998.4,N
1508161255.7,286047003.4,N
1508161275.5,286047002.9,N
1508161295.4,286047000.6,N
1508161315.2,286047005.1,N
1508161335.0,286047005.2,N
1508161335.9,286047005.2,N
1508161355.8,286047001.8,N
1508161375.6,286047000.1,N
1508161395.4,286046999.7,N
1508161415.3,286046999.1,N
1508161435.1,286047000.1,N
1508161436.0,286047000.1,N
1508161455.8,286047004.3,N
1508161475.7,286047003.5,N
1508161495.5,286047005.2,N
1508161515.3,286047002.7,N
1508161535.2,286047003.6,N
1508161555.9,286047003.7,N
1508161575.7,286046999.4,N
1508161595.6,286046996.8,N
1508161615.4,286046994.2,N
1508161635.2,286046994.3,N
1508161655.0,286046994.0,N
1508161655.9,286046994.0,N
1508161675.8,286046994.6,N
1508161695.6,286046987.1,Y
1508161715.5,286046989.6,P
1508161735.3,286046985.3,N
1508161755.1,286046986.5,N
1508161775.8,286046985.8,N
1508161795.7,286046988.1,N
1508161815.5,286046985.3,N
1508161835.3,286046982.6,Y
1508161855.2,286046990.9,P
1508161875.0,286046994.2,P
1508161875.9,286046994.2,N
1508161895.7,286046999.2,N
1508161915.6,286046995.2,N
1508161935.4,286046991.7,N
1508161955.2,286046992.9,N
1508161975.1,286046996.0,N
1508161976.0,286046996.0,N
1508161995.8,286046996.2,N
1508162015.6,286046996.6,N
1508162035.5,286046998.5,N
1508162055.3,286046996.1,N
1508162075.1,286046992.7,N
1508162095.9,286046990.8,Y
1508162115.7,286046997.9,P
1508162135.5,286046992.4,P
1508162155.4,286046991.2,P
1508162175.2,286046989.4,Y
1508162195.0,286046999.0,P
1508162195.9,286046999.0,N
1508162215.8,286046996.8,N
1508162235.6,286046997.1,N
1508162255.4,286046994.5,Y
1508162275.3,286046995.4,P
1508162295.1,286046995.2,P
1508162315.8,286046992.6,P
1508162335.7,286046996.4,N
1508162355.5,286046994.1,Y
1508162375.3,286047000.7,P
1508162395.2,286047000.3,N
